Weather reports worldwide

Advertisment
Firenze, Italy (16171): temperature & dewpoint: 29.03.2020 01:00:00 - 04.04.2020 01:00:00 (CEST)Firenze, Italy (16171): reduced air pressure: 29.03.2020 01:00:00 - 04.04.2020 01:00:00 (CEST)Firenze, Italy (16171): precipitation: 29.03.2020 01:00:00 - 04.04.2020 01:00:00 (CEST)
Date & Time tt [°C] td [°C] ppp [hPa] rr [mm]
04.04.2020 01:00:00 8,0 0,6 1016,8 -
04.04.2020 00:00:00 9,4 0,5 1016,3 -
03.04.2020 23:00:00 12,3 1,2 1015,6 -
03.04.2020 22:00:00 13,4 1,6 1015,1 -
03.04.2020 21:00:00 14,3 2,4 1014,2 -
03.04.2020 20:00:00 15,5 2,2 1013,2 0,0
03.04.2020 19:00:00 16,6 1,8 1012,5 -
03.04.2020 18:00:00 17,5 2,6 1011,9 -
03.04.2020 17:00:00 18,0 1,8 1011,8 -
03.04.2020 16:00:00 18,0 1,4 1011,9 -
03.04.2020 15:00:00 18,0 1,8 1012,1 -
03.04.2020 14:00:00 17,2 3,4 1012,6 0,0
03.04.2020 13:00:00 15,2 5,6 1013,1 -
03.04.2020 12:00:00 12,0 5,1 1013,8 -
03.04.2020 11:00:00 9,3 4,3 1014,1 -
03.04.2020 10:00:00 6,4 3,3 1014,2 -
03.04.2020 09:00:00 4,7 2,5 1014,3 -
03.04.2020 08:00:00 2,1 0,8 1014,1 0,0
03.04.2020 07:00:00 1,3 -1,0 1013,7 -
03.04.2020 06:00:00 1,7 -1,3 1013,6 -
03.04.2020 05:00:00 2,5 -1,2 1013,6 -
03.04.2020 04:00:00 3,4 -1,0 1013,7 -
03.04.2020 03:00:00 5,4 0,7 1013,6 -
03.04.2020 02:00:00 5,5 0,6 1013,8 0,0
03.04.2020 01:00:00 6,8 1,6 1014,0 -
03.04.2020 00:00:00 6,7 0,9 1014,1 -
02.04.2020 23:00:00 8,1 1,4 1013,7 -
02.04.2020 22:00:00 8,9 1,7 1013,3 -
02.04.2020 21:00:00 10,2 2,0 1012,4 -
02.04.2020 20:00:00 12,2 2,5 1011,6 0,0
02.04.2020 19:00:00 14,4 1,2 1011,1 -
02.04.2020 18:00:00 15,2 1,2 1011,3 -
02.04.2020 17:00:00 15,5 0,8 1011,6 -
02.04.2020 16:00:00 15,4 1,0 1012,3 -
02.04.2020 15:00:00 15,2 0,9 1013,2 -
02.04.2020 14:00:00 13,9 -0,3 1014,2 0,0
02.04.2020 13:00:00 12,7 0,0 1015,1 -
02.04.2020 12:00:00 11,0 0,6 1015,6 -
02.04.2020 11:00:00 8,6 0,2 1016,1 -
02.04.2020 10:00:00 6,1 -1,4 1016,4 -
02.04.2020 09:00:00 3,5 -3,0 1016,9 -
02.04.2020 08:00:00 1,0 -4,5 1017,0 0,0
02.04.2020 07:00:00 0,6 -4,9 1016,8 -
02.04.2020 06:00:00 0,8 -5,1 1016,9 -
02.04.2020 05:00:00 1,4 -5,0 1017,0 -
02.04.2020 04:00:00 1,4 -5,2 1017,3 -
02.04.2020 03:00:00 3,1 -5,4 1017,6 -
02.04.2020 02:00:00 5,1 -4,9 1018,0 0,0
02.04.2020 01:00:00 6,1 -4,8 1018,5 -
02.04.2020 00:00:00 6,7 -4,5 1018,9 -
01.04.2020 23:00:00 7,2 -4,7 1018,9 -
01.04.2020 22:00:00 7,7 -5,2 1018,9 -
01.04.2020 21:00:00 8,2 -4,4 1018,6 -
01.04.2020 20:00:00 9,2 -4,2 1017,9 0,0
01.04.2020 19:00:00 10,4 -4,2 1018,0 -
01.04.2020 18:00:00 11,1 -3,5 1017,8 -
01.04.2020 17:00:00 11,3 -3,4 1018,1 -
01.04.2020 16:00:00 11,3 -4,1 1018,6 -
01.04.2020 15:00:00 11,2 -3,4 1019,3 -
01.04.2020 14:00:00 10,9 -3,0 1020,0 0,0
01.04.2020 13:00:00 10,2 -2,3 1020,6 -
01.04.2020 12:00:00 9,8 -3,0 1021,2 -
01.04.2020 11:00:00 8,8 -3,9 1021,8 -
01.04.2020 10:00:00 7,9 -3,1 1021,7 -
01.04.2020 09:00:00 7,0 -2,3 1021,9 -
01.04.2020 08:00:00 5,2 -3,2 1022,2 0,0
01.04.2020 07:00:00 5,3 -3,6 1021,7 -
01.04.2020 06:00:00 5,7 -3,8 1021,6 -
01.04.2020 05:00:00 5,9 -3,3 1021,7 -
01.04.2020 04:00:00 6,1 -2,6 1021,8 -
01.04.2020 03:00:00 6,2 -1,8 1022,3 -
01.04.2020 02:00:00 6,3 -2,4 1022,5 0,0
01.04.2020 01:00:00 7,0 -2,8 1022,6 -
01.04.2020 00:00:00 6,7 -2,6 1022,4 -
31.03.2020 23:00:00 7,2 -2,4 1022,4 -
31.03.2020 22:00:00 7,5 -2,6 1021,9 -
31.03.2020 21:00:00 8,2 -3,5 1021,3 -
31.03.2020 20:00:00 8,9 -3,8 1020,5 -
31.03.2020 19:00:00 9,8 -3,6 1019,9 -
31.03.2020 18:00:00 10,4 0,0 1019,2 -
31.03.2020 17:00:00 10,5 1,7 1019,2 -
31.03.2020 16:00:00 9,8 2,6 1019,8 -
31.03.2020 15:00:00 9,7 3,6 1020,5 -
31.03.2020 14:00:00 10,6 3,8 1019,9 0,0
31.03.2020 13:00:00 9,7 3,6 1020,2 -
31.03.2020 12:00:00 9,6 3,5 1020,3 -
31.03.2020 11:00:00 8,7 3,3 1020,0 -
31.03.2020 10:00:00 7,9 3,3 1019,7 -
31.03.2020 09:00:00 8,0 3,4 1019,1 -
31.03.2020 08:00:00 7,8 4,0 1018,5 0,0
31.03.2020 07:00:00 7,9 4,1 1017,7 -
31.03.2020 06:00:00 8,7 3,9 1017,3 -
31.03.2020 05:00:00 9,2 4,6 1016,8 -
31.03.2020 04:00:00 9,7 5,0 1016,3 -
31.03.2020 03:00:00 10,6 6,1 1016,3 -
31.03.2020 02:00:00 11,5 7,8 1016,0 0,0
31.03.2020 01:00:00 11,8 10,2 1015,7 -
31.03.2020 00:00:00 11,0 9,6 1015,4 -
30.03.2020 23:00:00 11,7 9,8 1014,9 -
30.03.2020 22:00:00 11,8 10,2 1014,3 -
30.03.2020 21:00:00 13,1 11,5 1013,7 -
30.03.2020 20:00:00 13,3 10,8 1013,1 0,0
30.03.2020 19:00:00 14,1 10,1 1013,1 -
30.03.2020 18:00:00 15,1 9,8 1012,7 -
30.03.2020 17:00:00 16,5 10,1 1011,8 -
30.03.2020 16:00:00 16,4 10,2 1011,7 -
30.03.2020 15:00:00 18,6 11,8 1011,6 -
30.03.2020 14:00:00 18,2 12,4 1012,0 0,0
30.03.2020 13:00:00 16,3 12,6 1012,7 -
30.03.2020 12:00:00 14,5 12,0 1013,2 -
30.03.2020 11:00:00 12,7 11,6 1013,6 -
30.03.2020 10:00:00 10,6 9,8 1013,6 -
30.03.2020 09:00:00 8,9 8,3 1013,4 -
30.03.2020 08:00:00 7,1 6,2 1013,1 0,0
30.03.2020 07:00:00 7,4 6,3 1012,7 -
30.03.2020 06:00:00 7,9 6,8 1012,5 -
30.03.2020 05:00:00 8,3 6,9 1012,6 -
30.03.2020 04:00:00 8,7 7,3 1012,8 -
30.03.2020 03:00:00 9,0 7,4 1013,1 -
30.03.2020 02:00:00 10,1 8,5 1013,1 0,0
30.03.2020 01:00:00 10,9 8,1 1012,9 -
30.03.2020 00:00:00 11,8 8,6 1013,0 -
29.03.2020 23:00:00 13,2 9,8 1012,7 -
29.03.2020 22:00:00 13,9 9,7 1012,4 -
29.03.2020 21:00:00 14,7 10,1 1012,0 -
29.03.2020 20:00:00 15,7 10,8 1011,5 0,0
29.03.2020 19:00:00 17,4 11,8 1010,9 -
29.03.2020 18:00:00 18,4 11,4 1010,7 -
29.03.2020 17:00:00 18,6 11,4 1010,8 -
29.03.2020 16:00:00 18,5 11,5 1011,3 -
29.03.2020 15:00:00 17,9 11,4 1012,0 -
29.03.2020 14:00:00 17,1 12,0 1012,8 0,0
29.03.2020 13:00:00 15,1 11,6 1013,5 -
29.03.2020 12:00:00 13,2 11,6 1014,2 -
29.03.2020 11:00:00 11,1 10,2 1014,9 -
29.03.2020 10:00:00 8,8 7,6 1015,3 -
29.03.2020 09:00:00 7,2 6,3 1015,2 -
29.03.2020 08:00:00 5,6 4,5 1015,3 0,0
29.03.2020 07:00:00 5,8 4,6 1015,0 -
29.03.2020 06:00:00 6,2 4,8 1015,1 -
29.03.2020 05:00:00 7,0 5,5 1015,1 -
29.03.2020 04:00:00 7,4 5,7 1015,4 -
29.03.2020 03:00:00 8,2 6,3 1015,6 -
29.03.2020 02:00:00 8,9 6,8 1015,7 0,0
29.03.2020 01:00:00 - - - -

tt = temperature
td = dewpoint
ppp = reduced air pressure
rr = precipitation

Next stations